CZ-6A DEB, 61477

Orbit data source: Space-Track

CZ-6A DEB, 61477 is space debris in LEO originally from a launch on Tue, 06 Aug 2024 UTC launched from the Taiyaun Space Center, China (TSC). Debris objects in space refer to the collection of defunct objects orbiting the Earth. Examples of debris include non-operational satellites, rocket bodies, and fragments generated from explosions, collisions, or faulty payload assembly.

Loading next visibility...
CZ-6A DEB details
Identifier
61477, 2024-140AAK
Orbit
LEO
Last TLE update1 day ago
Origin
Flag of CNCNSA (CN / PRC)
ManufacturerSAST
MissionSpacecraft
Bus & MotorUnknown
MassUnknown
Launch date (UTC)
2024-08-06 (6 months ago)
Launch vehicleUnknown
Launch site
Taiyaun Space Center, China (TSC)
Object type
Payload
Rocket body
Debris
Shape & HBRUnknown
Radar Cross SectionSmall (<0.1 m²)

Expand to show TLE details & history

TLE from 1 day ago
0 CZ-6A DEB
1 61477U 24140AAK 25034.80925898  .00005856  00000-0  12394-2 0  9994
2 61477  89.0535 330.6854 0109593 171.9092 188.3920 14.55419629 22182
Epoch: 2025-02-03T19:25Z
Definitive object data (Epoch: 2025-02-03T19:25:19.975Z)
Latitude-0.00003°
Longitude-94.8714°
Altitude787.969 km
Speed7.419 km/s
True Right ascension22h 02m 44s
True Declination0° 00' 00"
Sunlit
Object was in daylight at TLE epoch
Visualization TLE readout
Latitude40.66604°
Longitude84.15256°
Altitude644.82 km
Speed7.576 km/s
Apparent Right ascension14h 23m 13s
Apparent Declination15° 55' 39"
Sunlit
Object is in full shadow
Visualization observer readout
Local Sidereal Time08:45:04
Azimuth80.993° E
Elevation14.258°
Doppler factor1
Orbital elements
Apogee altitude782.527 km
Perigee altitude627.277 km
Semi-major axis7,083.039 km
Eccentricity0.0109593
Inclination89.0535°
RAAN330.6854°
Arg. of periapsis171.9092°
True anomaly188.21117°
Mean anomaly188.392°
Eccentric anomaly188.30134°
Mean motion3.64094 °/min
BSTAR0.0012394
Orbital period98.88 mins
Loading maneuver chart data...
Loading historical data...
Loading historical data...
Loading historical data...
Loading historical data...
Loading historical data...
Loading historical data...
Loading historical data...

CZ-6A DEB Visibility forecast

Observer location: undefined°, undefined

Span
Click to sort rows by Start time (UTC) header in descending order
Start Az.
Max El. time (UTC)
Max El. Az.
Max El.
End time (UTC)
End Az.
7 mins2025-02-05 08:18:51.189Z342.522° N2025-02-05 08:21:51.189Z279.931° WNW35.534°2025-02-05 08:25:51.189Z204.634° SW
7 mins2025-02-05 19:24:51.189Z141.96° SSE2025-02-05 19:27:51.189Z80.773° E33.842°2025-02-05 19:31:51.189Z16.328° NNE
5 mins2025-02-05 21:04:51.189Z248.705° W2025-02-05 21:06:51.189Z278.557° WNW19.134°2025-02-05 21:09:51.189Z319.974° NNW
|